sat.trackr.live / text

‹ back to catalog

SKYTERRA 1

NORAD 37218 · 2010-061A

PAYLOAD ACTIVE UNKNOWN

§ Identity

Operator
Country
US
Launch date
2010-11-14
Launch site
TYMSC
Launch vehicle
Mass (kg)
RCS (m²)
0.00

Purposes: comms

External: N2YO · Heavens-Above · Gunter

§ Orbital elements

Epoch: 2026-05-25T03:51:46.665792Z

Period
1,436.08 min
Inclination
5.0786°
Eccentricity
0.0003105
Mean motion
1.00272762 rev/d
Perigee alt
35,773.2 km
Apogee alt
35,799.4 km
Semi-major
42,164.5 km
B*
0.0000e+0
RAAN
50.8806°
Arg perigee
13.5075°
Mean anomaly
135.0102°
Rev number
5,696

§ Raw data

SKYTERRA 11 37218U 10061A   26145.16095678 -.00000121  00000+0  00000+0 0  99922 37218   5.0786  50.8806 0003105  13.5075 135.0102  1.00272762 56961

JSON: /api/v1/satellites/37218 · /tle

For live sub-satellite position, see the globe view (requires WebGL).

§ Visibility from observer

Set your observer location to see the next 7 days of passes ≥ 10°. The values pass through the URL so the page stays shareable.

No JS? Fill the form by hand. The geolocation button needs JavaScript.